SKYNET 5B

Last updated on Nov. 19, 2019, 4:25 a.m. UTC

1 32294U 07056B   19322.29771480  .00000146  00000-0  00000+0 0  9993
2 32294   0.0714 357.0748 0003933 232.7975 319.4650  1.00270618 44091
UTC
Height (km)
Latitude
Longitude
Inclination
Orbital Period
UTC large
Height (km)
Speed (km/s)
/
Latitude / Longitude
Inclination (degrees)
Orbital Period (minutes)
Azimuth
Elevation
Range (km)
Doppler Factor
iOS Compass Heading
iOS Angle

Next 30 passes for location: Hong Kong

Rise time Rise Azimuth (degrees) Set time Set Azimuth (degrees) Duration Max altitude (degrees)

No matching passes for this satellites